Location: Pittman
(37.9557°N, 80.9209°W)
Time: 20:31:51
(UTC+00:00)

Tiangong - Visible Passes

Search period start: 10 April 2026 00:00
Search period end: 20 April 2026 00:00
Orbit: 378 x 384 km, 41.5° (Epoch: 10 April)

Date Brightness Start Highest point End Pass type
(mag) Time Alt. Az. Time Alt. Az. Time Alt. Az.
10 Apr -0.8 01:47:31 10° WNW 01:49:42 36° WSW 01:49:42 36° WSW visible
11 Apr -2.2 00:46:42 10° WNW 00:49:51 85° SSW 00:51:52 20° ESE visible
12 Apr -0.8 01:22:52 10° W 01:25:38 29° SSW 01:26:10 27° S visible
13 Apr -1.6 00:21:48 10° WNW 00:24:53 52° SSW 00:27:56 10° SE visible
14 Apr 0.2 00:58:19 10° WSW 01:00:26 17° SW 01:02:33 10° S visible
